KK6LVQ-13 Weather Reports


time (UTC)temp
F
wind
direction
speed
knots
gust
knots
rain 1hr
in
rain 24hr
in
rain mn
in
humidity
%
barometer
mb
20260503212002 58 144 0.9 1.7 0.00 0.02 0.02 74 1018.3
20260503211459 58 258 2.6 2.6 0.00 0.02 0.02 73 1018.3
20260503210955 59 292 4.3 5.2 0.00 0.02 0.02 70 1018.5
20260503210451 59 209 1.7 1.7 0.00 0.02 0.02 72 1018.2
20260503205946 59 229 0.9 0.9 0.00 0.02 0.02 70 1018.4
20260503205443 59 127 1.7 1.7 0.00 0.02 0.02 70 1018.3
20260503204939 59 281 1.7 2.6 0.00 0.02 0.02 70 1018.3
20260503204437 59 135 1.7 1.7 0.00 0.02 0.02 69 1018.4
20260503203933 60 309 1.7 1.7 0.00 0.02 0.02 69 1018.3
20260503203431 59 150 0.9 0.9 0.00 0.02 0.02 69 1018.3
20260503202928 59 351 0.9 1.7 0.00 0.02 0.02 69 1018.3
20260503202426 58 243 0.9 0.9 0.00 0.02 0.02 72 1018.3
20260503201924 58 275 3.5 4.3 0.00 0.02 0.02 71 1018.6
20260503201421 59 200 0.9 0.9 0.00 0.02 0.02 73 1018.5
20260503200918 59 332 0.9 1.7 0.00 0.02 0.02 72 1018.4
20260503200414 59 241 0.9 1.7 0.00 0.02 0.02 71 1018.6
20260503195911 58 122 2.6 2.6 0.00 0.02 0.02 73 1018.7
20260503195409 58 297 1.7 2.6 0.00 0.02 0.02 74 1018.7
20260503194905 59 224 1.7 1.7 0.00 0.02 0.02 70 1018.6
20260503194402 58 69 0.9 0.9 0.00 0.02 0.02 72 1018.7
20260503193858 58 246 2.6 2.6 0.00 0.02 0.02 72 1018.7
20260503193353 57 220 1.7 2.6 0.00 0.02 0.02 74 1018.8
20260503192849 57 211 0.9 1.7 0.00 0.02 0.02 73 1018.9
20260503192345 58 287 1.7 1.7 0.00 0.02 0.02 75 1018.8
20260503191842 58 237 0.9 0.9 0.00 0.02 0.02 75 1018.6
20260503191339 58 191 0.9 0.9 0.00 0.02 0.02 74 1018.6
20260503190835 58 139 0.9 0.9 0.00 0.02 0.02 73 1018.8
20260503190333 57 72 0.0 0.0 0.00 0.02 0.02 76 1018.8
20260503185830 57 352 0.9 0.9 0.00 0.02 0.02 77 1018.7
20260503185325 57 104 0.0 0.0 0.00 0.02 0.02 76 1018.8
20260503184820 57 319 1.7 1.7 0.00 0.02 0.02 75 1018.9
20260503184316 57 232 0.9 0.9 0.00 0.02 0.02 73 1018.9
20260503183812 57 156 0.9 1.7 0.00 0.02 0.02 75 1018.8
20260503183310 57 290 0.0 0.0 0.00 0.02 0.02 79 1018.6
20260503182807 57 103 0.0 0.0 0.00 0.02 0.02 79 1018.9
20260503182306 57 254 0.9 0.9 0.00 0.02 0.02 75 1018.7
20260503181803 57 115 0.9 1.7 0.00 0.02 0.02 76 1018.8
20260503181300 57 99 1.7 1.7 0.00 0.02 0.02 75 1018.7
20260503180756 58 176 0.0 0.0 0.00 0.02 0.02 77 1018.6
20260503180254 59 9 0.0 0.0 0.00 0.02 0.02 75 1018.7
20260503175750 57 97 0.0 0.0 0.00 0.02 0.02 78 1018.6
20260503175249 56 49 0.9 0.9 0.00 0.02 0.02 81 1018.7
20260503174744 56 15 0.0 0.0 0.00 0.02 0.02 84 1018.8
20260503174242 56 12 0.0 0.0 0.00 0.02 0.02 83 1019.0
20260503173737 56 85 0.0 0.0 0.00 0.02 0.02 82 1018.9
20260503173233 55 225 0.9 1.7 0.00 0.02 0.02 82 1018.7
20260503172730 55 43 0.0 0.0 0.00 0.02 0.02 88 1018.9
20260503172227 54 355 0.9 0.9 0.00 0.02 0.02 85 1018.8
20260503171723 54 67 0.0 0.9 0.00 0.02 0.02 88 1018.8
20260503171221 55 79 0.0 0.0 0.00 0.02 0.02 91 1018.9
20260503170718 54 180 0.0 0.0 0.00 0.02 0.02 91 1018.9
20260503170215 53 137 0.0 0.0 0.00 0.02 0.02 93 1018.9
20260503160136 52 200 0.0 0.0 0.05 0.02 0.02 96 1018.7
20260503150606 53 195 0.0 0.0 0.00 0.00 0.00 90 1018.2
20260503130956 51 96 0.0 0.0 0.00 0.00 0.00 95 1016.8
20260503130453 51 82 0.0 0.0 0.00 0.00 0.00 95 1016.8
20260503110338 51 21 0.0 0.0 0.00 0.00 0.00 95 1016.7
20260503090224 51 285 0.0 0.0 0.00 0.00 0.00 92 1016.8
20260503081151 51 337 0.0 0.9 0.00 0.00 0.00 91 1017.4
20260503080646 51 345 0.9 1.7 0.00 0.00 0.00 91 1017.5
20260503080144 51 341 1.7 1.7 0.00 0.00 0.00 91 1017.4
20260503072621 51 343 0.0 0.0 0.00 0.00 0.00 90 1017.3
20260503072118 51 285 1.7 2.6 0.00 0.00 0.00 90 1017.2
20260503071614 51 323 0.9 0.9 0.00 0.00 0.00 90 1017.1
20260503071111 51 309 0.9 0.9 0.00 0.00 0.00 90 1017.3
20260503070608 51 296 1.7 1.7 0.00 0.00 0.00 90 1017.3
20260503070106 51 312 0.9 0.9 0.00 0.00 0.00 90 1017.3
20260503055015 51 302 3.5 4.3 0.00 0.00 0.00 89 1017.5
20260503054511 51 341 0.9 0.9 0.00 0.00 0.00 89 1017.4
20260503054009 51 15 0.0 0.9 0.00 0.00 0.00 89 1017.4
20260503053506 51 40 0.0 0.9 0.00 0.00 0.00 89 1017.4
20260503053004 51 345 0.0 0.0 0.00 0.00 0.00 89 1017.7
20260503052501 51 340 0.9 0.9 0.00 0.00 0.00 89 1017.5
20260503051956 52 25 0.9 0.9 0.00 0.00 0.00 89 1017.6
20260503051452 52 6 0.9 0.9 0.00 0.00 0.00 89 1017.8
20260503050950 52 22 0.9 0.9 0.00 0.00 0.00 89 1017.6
20260503050445 52 270 0.9 1.7 0.00 0.00 0.00 89 1017.5
20260503045943 52 30 0.9 0.9 0.00 0.00 0.00 89 1017.7
20260503045441 52 301 2.6 2.6 0.00 0.00 0.00 89 1017.6
20260503044937 52 75 0.0 0.9 0.00 0.00 0.00 89 1017.7
20260503044434 52 329 1.7 1.7 0.00 0.00 0.00 89 1017.4
20260503043932 52 2 0.9 1.7 0.00 0.00 0.00 89 1017.5
20260503043428 52 18 0.0 0.9 0.00 0.00 0.00 89 1017.4
20260503042924 52 358 1.7 1.7 0.00 0.00 0.00 89 1017.5
20260503042421 52 300 3.5 5.2 0.00 0.00 0.00 88 1017.5
20260503041918 52 358 1.7 1.7 0.00 0.00 0.00 88 1017.4
20260503041414 52 2 1.7 1.7 0.00 0.00 0.00 88 1017.2
20260503040912 52 350 1.7 1.7 0.00 0.00 0.00 88 1017.2
20260503040409 52 326 2.6 2.6 0.00 0.00 0.00 88 1017.4
20260503035906 52 357 1.7 1.7 0.00 0.00 0.00 88 1017.0
20260503035403 52 202 1.7 2.6 0.00 0.00 0.00 88 1016.9
20260503034901 52 326 0.9 1.7 0.00 0.00 0.00 88 1016.8
20260503034358 52 340 2.6 2.6 0.00 0.00 0.00 88 1016.9
20260503033855 52 4 0.9 0.9 0.00 0.00 0.00 88 1016.8
20260503033353 52 9 0.9 0.9 0.00 0.00 0.00 88 1016.7
20260503032850 52 349 0.9 0.9 0.00 0.00 0.00 88 1016.6
20260503032349 52 341 1.7 2.6 0.00 0.00 0.00 88 1016.5
20260503031846 52 320 1.7 1.7 0.00 0.00 0.00 88 1016.5
20260503031343 52 347 1.7 2.6 0.00 0.00 0.00 88 1016.5
20260503030840 52 312 1.7 1.7 0.00 0.00 0.00 88 1016.7
20260503030336 52 18 2.6 2.6 0.00 0.00 0.00 88 1016.6
20260503025833 53 314 1.7 1.7 0.00 0.00 0.00 88 1016.3
20260503025331 53 47 0.9 1.7 0.00 0.00 0.00 88 1016.5
20260503024828 53 32 0.9 0.9 0.00 0.00 0.00 88 1016.3
20260503024324 53 329 2.6 4.3 0.00 0.00 0.00 88 1016.4
20260503023821 53 299 2.6 4.3 0.00 0.00 0.00 88 1016.3
20260503023318 53 48 0.9 0.9 0.00 0.00 0.00 88 1016.2
20260503022814 53 328 2.6 2.6 0.00 0.00 0.00 88 1016.2
20260503022309 53 304 2.6 2.6 0.00 0.00 0.00 88 1016.1
20260503021806 53 315 2.6 4.3 0.00 0.00 0.00 88 1016.1
20260503021302 54 336 2.6 4.3 0.00 0.00 0.00 88 1016.1
20260503020800 54 344 3.5 5.2 0.00 0.00 0.00 87 1016.1
20260503020257 54 308 2.6 4.3 0.00 0.00 0.00 87 1016.1
20260503015753 54 345 3.5 5.2 0.00 0.00 0.00 87 1016.2
20260503015250 55 300 5.2 6.1 0.00 0.00 0.00 86 1016.1
20260503014746 55 16 0.9 1.7 0.00 0.00 0.00 86 1016.4
20260503014244 55 346 2.6 2.6 0.00 0.00 0.00 85 1016.2
20260503013741 55 348 2.6 2.6 0.00 0.00 0.00 85 1016.4
20260503013238 55 333 2.6 4.3 0.00 0.00 0.00 85 1016.3
20260503012736 55 34 3.5 4.3 0.00 0.00 0.00 85 1016.3
20260503012233 56 339 2.6 2.6 0.00 0.00 0.00 85 1016.4
20260503011729 56 282 2.6 2.6 0.00 0.00 0.00 84 1016.4
20260503011227 56 349 4.3 5.2 0.00 0.00 0.00 84 1016.3
20260503010722 57 336 1.7 1.7 0.00 0.00 0.00 84 1016.3
20260503010220 57 37 3.5 5.2 0.00 0.00 0.00 83 1016.4
20260503005717 57 8 3.5 5.2 0.00 0.00 0.00 83 1016.5
20260503005214 58 31 4.3 6.1 0.00 0.00 0.00 82 1016.3
20260503004710 58 311 3.5 5.2 0.00 0.00 0.00 82 1016.1
20260503004209 58 330 4.3 5.2 0.00 0.00 0.00 82 1016.2
20260503003706 58 326 2.6 4.3 0.00 0.00 0.00 81 1016.3
20260503003203 58 309 5.2 6.1 0.00 0.00 0.00 81 1016.3
20260503002659 59 193 3.5 5.2 0.00 0.00 0.00 81 1016.3
20260503002156 59 343 6.1 7.0 0.00 0.00 0.00 80 1016.4
20260503001652 59 41 2.6 2.6 0.00 0.00 0.00 80 1016.3
20260503001149 60 284 3.5 4.3 0.00 0.00 0.00 79 1016.3
20260503000647 60 0 1.7 1.7 0.00 0.00 0.00 78 1016.4
20260503000144 61 317 3.5 6.1 0.00 0.00 0.00 77 1016.4
20260502235640 61 343 1.7 2.6 0.00 0.00 0.00 77 1016.3
20260502235139 62 294 3.5 4.3 0.00 0.00 0.00 76 1016.4
20260502234634 61 295 4.3 5.2 0.00 0.00 0.00 77 1016.4
20260502234132 63 90 3.5 4.3 0.00 0.00 0.00 76 1016.3
20260502233627 62 320 4.3 6.1 0.00 0.00 0.00 76 1016.4
20260502233124 62 263 2.6 4.3 0.00 0.00 0.00 76 1016.4
20260502232620 62 336 4.3 5.2 0.00 0.00 0.00 76 1016.5
20260502232118 64 324 4.3 5.2 0.00 0.00 0.00 75 1016.5
20260502231614 63 296 2.6 2.6 0.00 0.00 0.00 76 1016.5
20260502231113 64 293 4.3 6.1 0.00 0.00 0.00 74 1016.7
20260502230610 64 315 4.3 5.2 0.00 0.00 0.00 74 1016.7
20260502230109 64 12 5.2 5.2 0.00 0.00 0.00 74 1016.9
20260502225604 64 278 3.5 5.2 0.00 0.00 0.00 74 1016.8
20260502225101 65 290 2.6 4.3 0.00 0.00 0.00 75 1016.8
20260502224557 64 290 1.7 2.6 0.00 0.00 0.00 74 1017.0
20260502224054 65 339 2.6 2.6 0.00 0.00 0.00 73 1017.0
20260502223552 64 345 4.3 5.2 0.00 0.00 0.00 74 1017.1
20260502223050 64 308 3.5 4.3 0.00 0.00 0.00 74 1017.1
20260502222547 64 287 2.6 2.6 0.00 0.00 0.00 75 1017.4
20260502222043 64 336 2.6 4.3 0.00 0.00 0.00 74 1017.3
20260502221539 65 291 2.6 2.6 0.00 0.00 0.00 73 1017.6
20260502221037 64 289 3.5 5.2 0.00 0.00 0.00 74 1017.5
20260502220532 64 297 5.2 7.0 0.00 0.00 0.00 73 1017.8
20260502220029 64 253 3.5 4.3 0.00 0.00 0.00 75 1017.7
20260502215527 64 273 4.3 5.2 0.00 0.00 0.00 75 1017.9
20260502215023 64 318 3.5 4.3 0.00 0.00 0.00 75 1017.9
20260502214520 63 330 3.5 4.3 0.00 0.00 0.00 76 1017.7
20260502214018 64 344 4.3 5.2 0.00 0.00 0.00 75 1017.9
20260502213514 64 47 3.5 4.3 0.00 0.00 0.00 75 1017.9
20260502213013 66 311 3.5 4.3 0.00 0.00 0.00 73 1017.8
20260502212511 66 200 0.0 0.9 0.00 0.00 0.00 71 1018.0